This demonstration page uses our WeatherBlox Daily Observations layout. Learn more.

Left ArrowRight Arrow

41.55636, -103.73856

Hourly Observations for January 3, 2015

Temp ( °F °C ) Dew Point ( °F °C ) Humidity (%) Winds ( mph kmh ) Pressure ( in mb ) Visibility ( mi km ) Precip ( " mm )
12:53 am 00:53 Clear 12 -11.1 9 -12.8 87 87 NE 9 15 29.90 1013 9 14 0.00 0.00
1:53 am 01:53 Clear 15 -9.4 11 -11.7 84 84 Calm 29.88 1012 10 16 0.00 0.00
2:53 am 02:53 Clear 15 -9.4 11 -11.7 84 84 NW 5 7 29.87 1012 10 16 0.00 0.00
3:53 am 03:53 Clear 17 -8.3 13 -10.6 84 84 NW 5 7 29.88 1012 10 16 0.00 0.00
4:53 am 04:53 Clear 12 -11.1 9 -12.8 87 87 NW 8 13 29.92 1013 10 16 0.00 0.00
5:53 am 05:53 Clear 13 -10.6 9 -12.8 84 84 NW 9 15 29.92 1013 10 16 0.00 0.00
6:53 am 06:53 Mostly Clear 17 -8.3 13 -10.6 84 84 NW 10 17 29.94 1014 10 16 0.00 0.00
7:53 am 07:53 Cloudy 22 -5.6 18 -7.8 85 85 WNW 9 15 29.97 1015 10 16 0.00 0.00
8:14 am 08:14 Cloudy with Light Snow 23 -5 18 -8 80 80 NW 9 15 30.03 1017 2 3 0.00 0.00
8:40 am 08:40 Cloudy with Snow 23 -5 19 -7 86 86 WNW 9 15 30.06 1018 1 1 0.00 0.00
8:53 am 08:53 Cloudy with Light Snow 24 -4.4 22 -5.6 91 91 WNW 8 13 30.02 1017 1 1 0.02 0.51
9:16 am 09:16 Cloudy with Light Snow 27 -3 25 -4 93 93 WNW 7 11 30.06 1018 1 2 0.00 0.00
9:36 am 09:36 Cloudy with Light Snow 28 -2 25 -4 86 86 NW 6 9 30.06 1018 3 5 0.00 0.00
9:53 am 09:53 Cloudy with Light Wintry Mix 30 -1.1 26 -3.3 85 85 N 24 39 30.06 1018 5 8 0.01 0.25
10:02 am 10:02 Windy with Snow Likely 25 -4 19 -7 80 80 NNW 30 48 30.09 1019 2 3 0.00 0.00
10:10 am 10:10 Windy with Snow Likely 25 -4 19 -7 80 80 N 25 41 30.15 1021 3 4 0.00 0.00
10:18 am 10:18 Windy with Snow Likely 23 -5 18 -8 80 80 N 23 37 30.15 1021 5 8 0.00 0.00
10:46 am 10:46 Windy with Snow Likely 21 -6 16 -9 80 80 N 21 33 30.21 1023 3 4 0.00 0.00
10:53 am 10:53 Windy with Snow Likely 21 -6.1 16 -8.9 81 81 N 21 33 30.15 1021 2 3 0.01 0.25
11:07 am 11:07 Cloudy with Light Snow 20 -6.7 14 -10 78 78 N 18 30 30.24 1024 3 5 0.00 0.03
11:17 am 11:17 Windy with Snow Likely 19 -7.2 14 -10 81 81 NNW 20 31 30.27 1025 2 3 0.01 0.25
11:24 am 11:24 Windy with Snow Likely 18 -8 12 -11 79 79 N 24 39 30.27 1025 2 2 0.00 0.00
11:43 am 11:43 Mostly Cloudy with Snow 17 -8.3 12 -11.1 80 80 NNW 16 26 30.27 1025 1 1 0.02 0.51
11:53 am 11:53 Mostly Cloudy with Heavy Snow 16 -8.9 11 -11.7 80 80 NNW 22 35 30.21 1023 0 0 0.02 0.51
12:53 pm 12:53 Mostly Cloudy with Snow 12 -11.1 8 -13.3 84 84 N 23 37 30.25 1024 0 0 0.03 0.76
1:16 pm 13:16 Mostly Cloudy with Snow 10 -12 7 -14 85 85 N 22 35 30.42 1030 1 1 0.00 0.00
1:40 pm 13:40 Windy with Snow Likely 10 -12 7 -14 85 85 NNW 23 37 30.42 1030 1 1 0.00 0.00
1:53 pm 13:53 Windy with Snow Likely 10 -12.2 5 -15 80 80 NNW 22 35 30.29 1026 1 1 0.01 0.25
2:20 pm 14:20 Windy with Snow Likely 10 -12 3 -16 72 72 NNW 25 41 30.45 1031 2 3 0.00 0.00
2:28 pm 14:28 Windy with Snow Likely 10 -12 3 -16 72 72 NNW 25 41 30.45 1031 1 2 0.00 0.00
2:38 pm 14:38 Cloudy with Blowing Snow 10 -12 3 -16 72 72 NNW 20 31 30.45 1031 3 5 0.00 0.00
2:53 pm 14:53 Cloudy 10 -12.2 4 -15.6 76 76 NNW 20 31 30.32 1027 7 11 0.00 0.03
3:26 pm 15:26 Cloudy with Light Snow 10 -12 3 -16 72 72 NW 18 30 30.45 1031 3 4 0.00 0.00
3:34 pm 15:34 Cloudy with Blowing Snow 10 -12 3 -16 72 72 NW 21 33 30.48 1032 4 6 0.00 0.00
3:53 pm 15:53 Cloudy with Light Snow 9 -12.8 3 -16.1 77 77 NW 18 30 30.37 1028 6 10 0.00 0.03
4:53 pm 16:53 Cloudy 7 -13.9 1 -17.2 76 76 NW 15 24 30.42 1030 10 16 0.00 0.03
5:53 pm 17:53 Mostly Cloudy 5 -15 -2 -18.9 72 72 NW 10 17 30.45 1031 10 16 0.00 0.00
6:18 pm 18:18 Mostly Cloudy 3 -16 -2 -19 78 78 NNW 9 15 30.65 1038 10 16 0.00 0.00
6:28 pm 18:28 Mostly Cloudy 3 -16 -2 -19 78 78 NNW 8 13 30.65 1038 10 16 0.00 0.00
6:53 pm 18:53 Cloudy 4 -15.6 -3 -19.4 73 73 NNW 12 19 30.47 1032 10 16 0.00 0.00
7:18 pm 19:18 Partly Cloudy 1 -17 -6 -21 71 71 NNW 9 15 30.68 1039 10 16 0.00 0.00
7:53 pm 19:53 Clear -1 -18.3 -7 -21.7 75 75 NW 8 13 30.49 1032 10 16 0.00 0.00
8:53 pm 20:53 Clear -3 -19.4 -8 -22.2 79 79 W 9 15 30.49 1033 10 16 0.00 0.00
9:53 pm 21:53 Clear -3 -19.4 -9 -22.8 75 75 W 8 13 30.48 1032 10 16 0.00 0.00
10:53 pm 22:53 Clear -7 -21.7 -11 -23.9 82 82 Calm 30.53 1034 10 16 0.00 0.00
11:53 pm 23:53 Clear -8 -22.2 -11 -23.9 86 86 WNW 5 7 30.54 1034 10 16 0.00 0.00

Powered by AerisWeather